Time,TemperatureF,DewpointF,PressureIn,WindDirection,WindDirectionDegrees,WindSpeedMPH,WindSpeedGustMPH,Humidity,HourlyPrecipIn,Conditions,Clouds,dailyrainin,SoftwareType,DateUTC
2014-12-26 00:00:00,44.1,22.5,30.02,WNW,284,4.8,4.8,42,0.00,,CLR,0.00,VWS V14.01,2014-12-26 08:00:00,
2014-12-26 00:10:00,44.2,22.0,30.02,NW,310,4.3,5.9,41,0.00,,CLR,0.00,VWS V14.01,2014-12-26 08:10:00,
2014-12-26 00:20:00,44.4,22.8,30.02,NW,305,2.7,6.4,42,0.00,,CLR,0.00,VWS V14.01,2014-12-26 08:20:00,
2014-12-26 00:30:00,44.2,23.2,30.02,North,4,3.8,7.0,43,0.00,,CLR,0.00,VWS V14.01,2014-12-26 08:30:00,
2014-12-26 00:40:00,43.7,23.2,30.02,NNE,16,0.0,4.8,44,0.00,,CLR,0.00,VWS V14.01,2014-12-26 08:40:00,
2014-12-26 00:50:00,43.3,23.4,30.02,NNE,16,0.0,0.0,45,0.00,,CLR,0.00,VWS V14.01,2014-12-26 08:50:00,
2014-12-26 01:00:00,42.8,23.5,30.02,North,0,0.0,0.0,46,0.00,,CLR,0.00,VWS V14.01,2014-12-26 09:00:00,
2014-12-26 01:10:00,42.4,24.1,30.02,NW,320,4.8,5.9,48,0.00,,CLR,0.00,VWS V14.01,2014-12-26 09:10:00,
2014-12-26 01:20:00,42.1,23.8,30.02,NNW,342,3.8,4.8,48,0.00,,CLR,0.00,VWS V14.01,2014-12-26 09:20:00,
2014-12-26 01:30:00,42.1,23.3,30.02,NNW,346,3.2,5.9,47,0.00,,CLR,0.00,VWS V14.01,2014-12-26 09:30:00,
2014-12-26 01:40:00,41.9,23.2,30.02,North,351,0.0,4.8,47,0.00,,CLR,0.00,VWS V14.01,2014-12-26 09:40:00,
2014-12-26 01:50:00,42.1,23.3,30.02,West,278,3.8,4.3,47,0.00,,CLR,0.00,VWS V14.01,2014-12-26 09:50:00,
2014-12-26 02:00:00,42.3,23.5,30.02,WNW,285,0.0,3.8,47,0.00,,CLR,0.00,VWS V14.01,2014-12-26 10:00:00,
2014-12-26 02:10:00,42.1,23.3,30.02,NW,318,2.7,4.8,47,0.00,,CLR,0.00,VWS V14.01,2014-12-26 10:10:00,
2014-12-26 02:20:00,41.9,23.7,30.02,NW,326,0.0,3.8,48,0.00,,CLR,0.00,VWS V14.01,2014-12-26 10:20:00,
2014-12-26 02:30:00,41.7,23.5,30.05,North,8,3.8,4.8,48,0.00,,CLR,0.00,VWS V14.01,2014-12-26 10:30:00,
2014-12-26 02:40:00,41.2,23.5,30.05,North,0,0.0,3.8,49,0.00,,CLR,0.00,VWS V14.01,2014-12-26 10:40:00,
2014-12-26 02:50:00,41.0,23.3,30.05,NNW,343,4.8,4.8,49,0.00,,CLR,0.00,VWS V14.01,2014-12-26 10:50:00,
2014-12-26 03:00:00,41.0,22.8,30.05,NNE,12,4.8,8.1,48,0.00,,CLR,0.00,VWS V14.01,2014-12-26 11:00:00,
2014-12-26 03:10:00,41.5,22.8,30.05,North,351,4.3,7.5,47,0.00,,CLR,0.00,VWS V14.01,2014-12-26 11:10:00,
2014-12-26 03:20:00,41.9,23.2,30.05,North,0,4.3,7.0,47,0.00,,CLR,0.00,VWS V14.01,2014-12-26 11:20:00,
2014-12-26 03:30:00,42.1,22.8,30.05,NNW,342,4.3,7.0,46,0.00,,CLR,0.00,VWS V14.01,2014-12-26 11:30:00,
2014-12-26 03:40:00,42.3,23.0,30.05,North,0,4.3,5.9,46,0.00,,CLR,0.00,VWS V14.01,2014-12-26 11:40:00,
2014-12-26 03:50:00,42.4,23.6,30.05,North,356,6.4,7.0,47,0.00,,CLR,0.00,VWS V14.01,2014-12-26 11:50:00,
2014-12-26 04:00:00,43.2,24.3,30.05,NNW,332,6.4,10.5,47,0.00,,CLR,0.00,VWS V14.01,2014-12-26 12:00:00,
2014-12-26 04:10:00,44.2,25.8,30.05,NNE,14,4.8,9.9,48,0.00,,CLR,0.00,VWS V14.01,2014-12-26 12:10:00,
2014-12-26 04:20:00,44.8,25.8,30.05,NNE,21,6.4,9.1,47,0.00,,CLR,0.00,VWS V14.01,2014-12-26 12:20:00,
2014-12-26 04:30:00,45.1,26.1,30.05,North,3,5.9,9.1,47,0.00,,CLR,0.00,VWS V14.01,2014-12-26 12:30:00,
2014-12-26 04:40:00,45.1,26.1,30.05,North,9,7.0,8.1,47,0.00,,CLR,0.00,VWS V14.01,2014-12-26 12:40:00,
2014-12-26 04:50:00,45.1,26.1,30.05,NNE,21,6.4,7.5,47,0.00,,CLR,0.00,VWS V14.01,2014-12-26 12:50:00,
2014-12-26 05:00:00,45.1,26.1,30.05,NNE,18,4.3,7.5,47,0.00,,CLR,0.00,VWS V14.01,2014-12-26 13:00:00,
2014-12-26 05:10:00,45.1,25.6,30.05,North,0,3.8,9.1,46,0.00,,CLR,0.00,VWS V14.01,2014-12-26 13:10:00,
2014-12-26 05:20:00,45.3,25.2,30.08,North,356,3.2,10.5,45,0.00,,CLR,0.00,VWS V14.01,2014-12-26 13:20:00,
2014-12-26 05:30:00,45.5,24.9,30.05,North,0,4.8,6.4,44,0.00,,CLR,0.00,VWS V14.01,2014-12-26 13:30:00,
2014-12-26 05:40:00,45.5,24.9,30.05,NNE,33,3.2,7.5,44,0.00,,CLR,0.00,VWS V14.01,2014-12-26 13:40:00,
2014-12-26 05:50:00,45.3,24.7,30.08,NNE,16,3.2,4.8,44,0.00,,CLR,0.00,VWS V14.01,2014-12-26 13:50:00,
2014-12-26 06:00:00,45.0,23.8,30.08,North,8,3.2,7.5,43,0.00,,CLR,0.00,VWS V14.01,2014-12-26 14:00:00,
2014-12-26 06:10:00,44.8,23.7,30.08,NNE,21,0.0,5.4,43,0.00,,CLR,0.00,VWS V14.01,2014-12-26 14:10:00,
2014-12-26 06:20:00,44.6,23.5,30.08,ENE,69,0.0,4.8,43,0.00,,CLR,0.00,VWS V14.01,2014-12-26 14:20:00,
2014-12-26 06:30:00,44.2,23.7,30.08,NE,46,0.0,4.8,44,0.00,,CLR,0.00,VWS V14.01,2014-12-26 14:30:00,
2014-12-26 06:40:00,44.1,23.6,30.08,NW,325,0.0,4.8,44,0.00,,CLR,0.00,VWS V14.01,2014-12-26 14:40:00,
2014-12-26 06:50:00,44.2,23.2,30.08,North,356,6.4,9.7,43,0.00,,CLR,0.00,VWS V14.01,2014-12-26 14:50:00,
2014-12-26 07:00:00,45.1,23.4,30.11,North,10,9.1,9.7,42,0.00,,CLR,0.00,VWS V14.01,2014-12-26 15:00:00,
2014-12-26 07:10:00,45.3,23.6,30.11,NNE,32,2.7,10.5,42,0.00,,CLR,0.00,VWS V14.01,2014-12-26 15:10:00,
2014-12-26 07:20:00,45.3,23.0,30.11,ENE,62,3.8,7.5,41,0.00,,CLR,0.00,VWS V14.01,2014-12-26 15:20:00,
2014-12-26 07:30:00,45.1,22.9,30.11,NNE,16,0.0,9.7,41,0.00,,CLR,0.00,VWS V14.01,2014-12-26 15:30:00,
2014-12-26 07:40:00,45.1,22.9,30.11,NNE,16,3.2,6.4,41,0.00,,CLR,0.00,VWS V14.01,2014-12-26 15:40:00,
2014-12-26 07:50:00,45.3,23.0,30.11,NNE,12,6.4,7.0,41,0.00,,CLR,0.00,VWS V14.01,2014-12-26 15:50:00,
2014-12-26 08:00:00,46.0,23.7,30.11,NNE,32,9.7,9.7,41,0.00,,CLR,0.00,VWS V14.01,2014-12-26 16:00:00,
2014-12-26 08:10:00,46.8,23.7,30.11,North,9,7.0,9.7,40,0.00,,CLR,0.00,VWS V14.01,2014-12-26 16:10:00,
2014-12-26 08:20:00,47.1,24.1,30.11,ENE,73,0.0,7.5,40,0.00,,CLR,0.00,VWS V14.01,2014-12-26 16:20:00,
2014-12-26 08:30:00,47.5,24.4,30.11,East,87,3.8,6.4,40,0.00,,CLR,0.00,VWS V14.01,2014-12-26 16:30:00,
2014-12-26 08:40:00,47.8,24.1,30.11,ENE,66,5.9,7.5,39,0.00,,CLR,0.00,VWS V14.01,2014-12-26 16:40:00,
2014-12-26 08:50:00,49.3,24.8,30.14,NE,35,6.4,15.8,38,0.00,,CLR,0.00,VWS V14.01,2014-12-26 16:50:00,
2014-12-26 09:00:00,51.1,25.7,30.14,ENE,64,14.8,14.8,37,0.00,,CLR,0.00,VWS V14.01,2014-12-26 17:00:00,
2014-12-26 09:10:00,52.5,26.4,30.14,ENE,58,9.9,18.0,36,0.00,,CLR,0.00,VWS V14.01,2014-12-26 17:10:00,
2014-12-26 09:20:00,53.6,25.9,30.14,NNE,31,9.7,15.3,34,0.00,,CLR,0.00,VWS V14.01,2014-12-26 17:20:00,
2014-12-26 09:30:00,54.5,25.3,30.14,North,4,9.1,18.0,32,0.00,,CLR,0.00,VWS V14.01,2014-12-26 17:30:00,
2014-12-26 09:40:00,55.2,25.1,30.14,NNE,17,9.9,20.1,31,0.00,,CLR,0.00,VWS V14.01,2014-12-26 17:40:00,
2014-12-26 09:50:00,55.8,24.8,30.14,ENE,60,7.0,18.0,30,0.00,,CLR,0.00,VWS V14.01,2014-12-26 17:50:00,
2014-12-26 10:00:00,56.3,25.3,30.14,North,2,12.6,15.3,30,0.00,,CLR,0.00,VWS V14.01,2014-12-26 18:00:00,
2014-12-26 10:10:00,56.7,25.6,30.14,NE,41,10.5,15.3,30,0.00,,CLR,0.00,VWS V14.01,2014-12-26 18:10:00,
2014-12-26 10:20:00,57.0,25.9,30.17,ENE,71,12.1,18.0,30,0.00,,CLR,0.00,VWS V14.01,2014-12-26 18:20:00,
2014-12-26 10:30:00,57.6,25.6,30.14,NE,36,4.3,13.2,29,0.00,,CLR,0.00,VWS V14.01,2014-12-26 18:30:00,
2014-12-26 10:40:00,58.3,26.2,30.14,NE,42,6.4,15.8,29,0.00,,CLR,0.00,VWS V14.01,2014-12-26 18:40:00,
2014-12-26 10:50:00,58.8,26.6,30.14,NNE,30,13.2,18.5,29,0.00,,CLR,0.00,VWS V14.01,2014-12-26 18:50:00,
2014-12-26 11:00:00,59.4,26.3,30.14,NE,55,9.1,15.3,28,0.00,,CLR,0.00,VWS V14.01,2014-12-26 19:00:00,
2014-12-26 11:10:00,59.7,26.6,30.14,NE,46,9.1,15.8,28,0.00,,CLR,0.00,VWS V14.01,2014-12-26 19:10:00,
2014-12-26 11:20:00,60.1,26.9,30.14,NE,42,12.1,15.3,28,0.00,,CLR,0.00,VWS V14.01,2014-12-26 19:20:00,
2014-12-26 11:30:00,60.4,27.2,30.14,NNE,32,9.7,13.7,28,0.00,,CLR,0.00,VWS V14.01,2014-12-26 19:30:00,
2014-12-26 11:40:00,61.0,26.8,30.14,NNE,25,9.7,13.2,27,0.00,,CLR,0.00,VWS V14.01,2014-12-26 19:40:00,
2014-12-26 11:50:00,61.7,27.4,30.11,NNE,23,8.1,13.2,27,0.00,,CLR,0.00,VWS V14.01,2014-12-26 19:50:00,
2014-12-26 12:00:00,61.9,27.6,30.11,ENE,59,4.3,13.2,27,0.00,,CLR,0.00,VWS V14.01,2014-12-26 20:00:00,
2014-12-26 12:10:00,62.4,28.0,30.11,ENE,68,7.0,13.2,27,0.00,,CLR,0.00,VWS V14.01,2014-12-26 20:10:00,
2014-12-26 12:20:00,63.0,27.6,30.11,East,94,9.1,12.1,26,0.00,,CLR,0.00,VWS V14.01,2014-12-26 20:20:00,
2014-12-26 12:30:00,63.3,27.9,30.11,NE,47,7.0,12.1,26,0.00,,CLR,0.00,VWS V14.01,2014-12-26 20:30:00,
2014-12-26 12:40:00,63.7,28.2,30.11,East,87,3.2,9.9,26,0.00,,CLR,0.00,VWS V14.01,2014-12-26 20:40:00,
2014-12-26 12:50:00,64.2,28.6,30.11,ENE,57,2.7,7.0,26,0.00,,CLR,0.00,VWS V14.01,2014-12-26 20:50:00,
2014-12-26 13:00:00,64.9,28.3,30.11,East,95,4.3,6.4,25,0.00,,CLR,0.00,VWS V14.01,2014-12-26 21:00:00,
2014-12-26 13:10:00,65.3,28.6,30.11,ESE,113,0.0,8.6,25,0.00,,CLR,0.00,VWS V14.01,2014-12-26 21:10:00,
2014-12-26 13:20:00,65.7,28.9,30.11,North,351,3.8,6.4,25,0.00,,CLR,0.00,VWS V14.01,2014-12-26 21:20:00,
2014-12-26 13:30:00,65.5,28.8,30.11,ENE,65,3.2,4.8,25,0.00,,CLR,0.00,VWS V14.01,2014-12-26 21:30:00,
2014-12-26 13:40:00,66.0,29.2,30.11,East,93,5.9,9.9,25,0.00,,CLR,0.00,VWS V14.01,2014-12-26 21:40:00,
2014-12-26 13:50:00,66.2,28.4,30.11,East,86,6.4,9.9,24,0.00,,CLR,0.00,VWS V14.01,2014-12-26 21:50:00,
2014-12-26 14:00:00,67.1,29.1,30.11,SW,218,4.8,11.5,24,0.00,,CLR,0.00,VWS V14.01,2014-12-26 22:00:00,
2014-12-26 14:10:00,67.3,30.3,30.11,SSE,162,3.2,7.0,25,0.00,,CLR,0.00,VWS V14.01,2014-12-26 22:10:00,
2014-12-26 14:20:00,66.9,30.0,30.11,West,274,4.8,9.1,25,0.00,,CLR,0.00,VWS V14.01,2014-12-26 22:20:00,
2014-12-26 14:30:00,66.6,29.7,30.11,West,270,3.2,9.1,25,0.00,,CLR,0.00,VWS V14.01,2014-12-26 22:30:00,
2014-12-26 14:40:00,66.0,30.2,30.11,West,273,7.5,9.1,26,0.00,,CLR,0.00,VWS V14.01,2014-12-26 22:40:00,
2014-12-26 14:50:00,65.3,29.6,30.11,West,263,7.0,12.1,26,0.00,,CLR,0.00,VWS V14.01,2014-12-26 22:50:00,